Tracking 19709 objects as of 18-Jun-2019
HD Live streaming from Space Station
objects crossing your sky now

SL-16 DEB

Track SL-16 DEB now!
10-day predictions


NORAD ID: 42235
Int'l Code: 1993-016CP
Perigee: 744.8 km
Apogee: 952.9 km
Inclination: 71.0 °
Period: 101.8 minutes
Semi major axis: 7219 km
RCS: Unknown
Launch date: March 26, 1993
Source: Commonwealth of Independent States (former USSR) (CIS)
Launch site: PLESETSK MISSILE AND SPACE COMPLEX (PKMTR)

Note: This is SATELLITE DEBRIS
aabbcc
Your satellite tracking list
Your tracking list is empty




NASA's NSSDC Master Catalog

Two Line Element Set (TLE):
1 42235U 93016CP  19168.10595926  .00001490  00000-0  71585-3 0  9990
2 42235  70.9981  65.7065 0144168 183.0044 177.0230 14.15177901753646
Source of the keplerian elements: AFSPC